Location: Croisilles
(50.1998°N, 2.8793°E)
Time: 13:38:27
(UTC+00:00)

CORIOLIS - Pass Details

Date: 21 January 2021
Orbit: 818 x 839 km, 98.7° (Epoch: 26 February)

Event Time Altitude Azimuth Distance (km) Brightness Sun altitude
Rises 16:55:06 0° 156° (SSE) 3,366 7.3 -5.2°
Reaches altitude 10° 16:57:27 10° 154° (SSE) 2,433 6.6 -5.6°
Maximum altitude 17:02:49 72° 72° (ENE) 871 4.1 -6.4°
Drops below altitude 10° 17:08:12 10° 348° (NNW) 2,436 6.5 -7.2°
Sets 17:10:33 0° 347° (NNW) 3,371 7.2 -7.5°
